TimeEDT,TemperatureF,Dew PointF,Humidity,Sea Level PressureIn,VisibilityMPH,Wind Direction,Wind SpeedMPH,Gust SpeedMPH,PrecipitationIn,Events,Conditions,WindDirDegrees,DateUTC
12:54 AM,33.1,27.0,78,29.78,10.0,Calm,Calm,-,N/A,,Overcast,0,2013-03-21 04:54:00
2:54 AM,33.1,26.1,75,29.77,10.0,NNW,4.6,-,N/A,,Clear,340,2013-03-21 06:54:00
3:54 AM,35.1,23.0,61,29.75,10.0,North,10.4,-,N/A,,Clear,360,2013-03-21 07:54:00
4:54 AM,33.1,24.1,70,29.75,10.0,North,9.2,-,N/A,,Clear,350,2013-03-21 08:54:00
5:54 AM,30.9,25.0,79,29.77,10.0,North,4.6,-,N/A,,Clear,350,2013-03-21 09:54:00
6:54 AM,30.9,25.0,79,29.78,10.0,North,5.8,-,N/A,,Scattered Clouds,350,2013-03-21 10:54:00
7:54 AM,32.0,25.0,75,29.77,10.0,NNW,4.6,-,N/A,,Overcast,330,2013-03-21 11:54:00
8:54 AM,34.0,27.0,75,29.76,7.0,North,8.1,-,N/A,,Overcast,350,2013-03-21 12:54:00
9:09 AM,33.8,28.4,81,29.76,2.0,North,9.2,-,0.00,Snow,Light Snow,350,2013-03-21 13:09:00
9:16 AM,33.8,28.4,81,29.76,1.2,NNW,8.1,-,0.00,Snow,Light Snow,340,2013-03-21 13:16:00
9:42 AM,32.0,28.4,87,29.76,1.0,North,6.9,-,0.00,Snow,Light Snow,360,2013-03-21 13:42:00
9:54 AM,32.0,28.9,88,29.77,1.0,NNW,11.5,17.3,0.00,Snow,Light Snow,330,2013-03-21 13:54:00
9:57 AM,32.0,28.4,87,29.77,0.8,North,12.7,17.3,0.00,Snow,Light Snow,350,2013-03-21 13:57:00
10:06 AM,30.2,28.4,93,29.77,0.5,North,10.4,-,0.00,Fog-Snow,Snow,350,2013-03-21 14:06:00
10:14 AM,32.0,26.6,80,29.76,2.0,North,9.2,-,0.00,Snow,Light Snow,350,2013-03-21 14:14:00
10:17 AM,32.0,26.6,80,29.76,3.0,North,6.9,-,0.00,Snow,Light Snow,350,2013-03-21 14:17:00
10:22 AM,32.0,26.6,80,29.76,2.5,North,8.1,-,0.00,Snow,Light Snow,350,2013-03-21 14:22:00
10:29 AM,32.0,28.4,87,29.76,0.8,North,10.4,-,0.00,Snow,Light Snow,360,2013-03-21 14:29:00
10:49 AM,30.2,28.4,93,29.76,0.5,North,10.4,-,0.01,Fog-Snow,Snow,350,2013-03-21 14:49:00
10:50 AM,30.9,28.0,89,29.76,0.5,North,10.4,-,0.01,Fog-Snow,Snow,350,2013-03-21 14:50:00
11:04 AM,32.0,28.4,87,29.75,1.0,North,8.1,-,0.00,Snow,Light Snow,360,2013-03-21 15:04:00
11:13 AM,30.2,28.4,93,29.76,0.8,North,9.2,-,0.00,Snow,Light Snow,360,2013-03-21 15:13:00
11:21 AM,30.2,26.6,86,29.75,1.2,North,10.4,-,0.00,Snow,Light Snow,10,2013-03-21 15:21:00
11:31 AM,32.0,26.6,80,29.75,3.0,North,8.1,-,0.00,Snow,Light Snow,360,2013-03-21 15:31:00
11:54 AM,32.0,26.1,79,29.75,2.5,NNE,4.6,-,0.00,Snow,Light Snow,20,2013-03-21 15:54:00
12:00 PM,32.0,26.6,80,29.74,3.0,NNE,8.1,-,0.00,Snow,Light Snow,30,2013-03-21 16:00:00
12:26 PM,32.0,26.6,80,29.74,3.0,North,10.4,-,0.00,Snow,Light Snow,350,2013-03-21 16:26:00
12:39 PM,32.0,24.8,75,29.74,2.5,North,11.5,-,0.00,Snow,Light Snow,350,2013-03-21 16:39:00
12:47 PM,32.0,26.6,80,29.74,0.8,North,5.8,-,0.00,Snow,Light Snow,360,2013-03-21 16:47:00
12:54 PM,32.0,27.0,82,29.74,0.5,North,9.2,-,0.01,Snow,Snow,10,2013-03-21 16:54:00
1:09 PM,30.2,28.4,93,29.73,0.5,North,6.9,-,0.00,Fog-Snow,Light Snow,360,2013-03-21 17:09:00
1:15 PM,30.2,28.4,93,29.73,1.0,NNE,6.9,-,0.00,Snow,Light Snow,20,2013-03-21 17:15:00
1:26 PM,32.0,28.4,87,29.73,3.0,NE,5.8,-,0.00,Snow,Light Snow,50,2013-03-21 17:26:00
1:35 PM,32.0,28.4,87,29.72,1.8,ENE,8.1,-,0.00,Snow,Light Snow,60,2013-03-21 17:35:00
1:47 PM,32.0,28.4,87,29.72,2.0,ENE,6.9,-,0.00,Snow,Light Snow,60,2013-03-21 17:47:00
1:54 PM,33.1,28.0,82,29.72,2.5,East,8.1,-,0.00,Snow,Light Snow,80,2013-03-21 17:54:00
1:56 PM,33.8,28.4,81,29.72,3.0,East,6.9,-,0.00,Snow,Light Snow,80,2013-03-21 17:56:00
2:54 PM,35.1,25.0,67,29.70,10.0,North,11.5,-,0.00,,Overcast,360,2013-03-21 18:54:00
3:54 PM,36.0,21.0,55,29.69,10.0,North,11.5,-,0.00,,Overcast,350,2013-03-21 19:54:00
4:54 PM,37.0,15.1,41,29.69,10.0,WNW,13.8,-,N/A,,Mostly Cloudy,300,2013-03-21 20:54:00
5:54 PM,37.0,10.9,34,29.70,10.0,NW,15.0,23.0,N/A,,Mostly Cloudy,310,2013-03-21 21:54:00
6:54 PM,35.1,12.9,40,29.74,10.0,NW,11.5,20.7,N/A,,Mostly Cloudy,320,2013-03-21 22:54:00
7:54 PM,33.1,10.0,38,29.76,10.0,WNW,12.7,-,N/A,,Clear,300,2013-03-21 23:54:00
8:54 PM,30.9,10.0,42,29.78,10.0,WNW,12.7,-,N/A,,Clear,290,2013-03-22 00:54:00
9:54 PM,30.0,8.1,40,29.81,10.0,WNW,11.5,24.2,N/A,,Clear,300,2013-03-22 01:54:00
10:54 PM,30.0,8.1,40,29.82,10.0,NW,12.7,-,N/A,,Clear,310,2013-03-22 02:54:00
11:54 PM,28.9,10.0,45,29.83,10.0,WNW,9.2,-,N/A,,Clear,290,2013-03-22 03:54:00